Tracking 25707 objects as of 29-Jun-2022
HD Live streaming from Space Station
objects crossing your sky now

METEOR PRIRODA

Track METEOR PRIRODA now!
10-day predictions
METEOR PRIRODA is classified as:


NORAD ID: 12585
Int'l Code: 1981-065A
Perigee: 489.6 km
Apogee: 510.5 km
Inclination: 97.6 °
Period: 94.5 minutes
Semi major axis: 6871 km
RCS: 4.6163 m2 (large)
Launch date: July 10, 1981
Source: Commonwealth of Independent States (former USSR) (CIS)
Launch site: TYURATAM MISSILE AND SPACE COMPLEX (TTMTR)
aabbcc
Your satellite tracking list
Your tracking list is empty




NASA's NSSDC Master Catalog

Two Line Element Set (TLE):
1 12585U 81065A   22180.54578774  .00002307  00000-0  97232-4 0  9990
2 12585  97.5824 185.5663 0015199  94.1668 266.1306 15.24285422236012
Source of the keplerian elements: AFSPC